����������;��������(kVARh)
2015-07-13 00:00;0,4
2015-07-13 00:15;0,1
2015-07-13 00:30;0
2015-07-13 00:45;0
2015-07-13 01:00;0
2015-07-13 01:15;0
2015-07-13 01:30;0
2015-07-13 01:45;0
2015-07-13 02:00;0
2015-07-13 02:15;0,05
2015-07-13 02:30;0,5
2015-07-13 02:45;0
2015-07-13 03:00;0
2015-07-13 03:15;0
2015-07-13 03:30;0
2015-07-13 03:45;1,95
2015-07-13 04:00;0
2015-07-13 04:15;0
2015-07-13 04:30;0
2015-07-13 04:45;0
2015-07-13 05:00;4,9
2015-07-13 05:15;0,85
2015-07-13 05:30;1,6
2015-07-13 05:45;1,5
2015-07-13 06:00;0,2
2015-07-13 06:15;2,6
2015-07-13 06:30;4,5
2015-07-13 06:45;3
2015-07-13 07:00;2,7
2015-07-13 07:15;1
2015-07-13 07:30;6,3
2015-07-13 07:45;29,05
2015-07-13 08:00;43,25
2015-07-13 08:15;28,95
2015-07-13 08:30;33,3
2015-07-13 08:45;28,6
2015-07-13 09:00;37,35
2015-07-13 09:15;32,8
2015-07-13 09:30;34,3
2015-07-13 09:45;34,85
2015-07-13 10:00;39,45
2015-07-13 10:15;38,25
2015-07-13 10:30;37,25
2015-07-13 10:45;44,95
2015-07-13 11:00;51,45
2015-07-13 11:15;39,2
2015-07-13 11:30;39,5
2015-07-13 11:45;39,7
2015-07-13 12:00;41,9
2015-07-13 12:15;42,1
2015-07-13 12:30;47,4
2015-07-13 12:45;40,05
2015-07-13 13:00;48,05
2015-07-13 13:15;45,75
2015-07-13 13:30;42,95
2015-07-13 13:45;37,7
2015-07-13 14:00;45
2015-07-13 14:15;41,8
2015-07-13 14:30;41,7
2015-07-13 14:45;42,8
2015-07-13 15:00;41,95
2015-07-13 15:15;30,25
2015-07-13 15:30;30,45
2015-07-13 15:45;28,3
2015-07-13 16:00;26,75
2015-07-13 16:15;15,8
2015-07-13 16:30;18
2015-07-13 16:45;18
2015-07-13 17:00;22,4
2015-07-13 17:15;18,45
2015-07-13 17:30;12,7
2015-07-13 17:45;10,55
2015-07-13 18:00;13,4
2015-07-13 18:15;9,5
2015-07-13 18:30;2,05
2015-07-13 18:45;2,15
2015-07-13 19:00;2,8
2015-07-13 19:15;6,6
2015-07-13 19:30;4,5
2015-07-13 19:45;0,35
2015-07-13 20:00;0
2015-07-13 20:15;0
2015-07-13 20:30;0,8
2015-07-13 20:45;0
2015-07-13 21:00;0
2015-07-13 21:15;0
2015-07-13 21:30;0
2015-07-13 21:45;0
2015-07-13 22:00;0,05
2015-07-13 22:15;0
2015-07-13 22:30;0
2015-07-13 22:45;0
2015-07-13 23:00;0,05
2015-07-13 23:15;0
2015-07-13 23:30;0
2015-07-13 23:45;0
2015-07-14 00:00;0,05
2015-07-14 00:15;0
2015-07-14 00:30;1,15
2015-07-14 00:45;0
2015-07-14 01:00;0
2015-07-14 01:15;0
2015-07-14 01:30;0,1
2015-07-14 01:45;0,35
2015-07-14 02:00;2,9
2015-07-14 02:15;1,6
2015-07-14 02:30;2,45
2015-07-14 02:45;0,8
2015-07-14 03:00;0
2015-07-14 03:15;2,3
2015-07-14 03:30;0,05
2015-07-14 03:45;2,55
2015-07-14 04:00;5,45
2015-07-14 04:15;3,4
2015-07-14 04:30;4,5
2015-07-14 04:45;5,5
2015-07-14 05:00;4,05
2015-07-14 05:15;5,8
2015-07-14 05:30;8,9
2015-07-14 05:45;9,45
2015-07-14 06:00;11,2
2015-07-14 06:15;8,55
2015-07-14 06:30;7,05
2015-07-14 06:45;0,2
2015-07-14 07:00;3,3
2015-07-14 07:15;3,7
2015-07-14 07:30;3,2
2015-07-14 07:45;25,05
2015-07-14 08:00;27,85
2015-07-14 08:15;19,9
2015-07-14 08:30;20,7
2015-07-14 08:45;25,2
2015-07-14 09:00;24,45
2015-07-14 09:15;26,2
2015-07-14 09:30;25,65
2015-07-14 09:45;32,95
2015-07-14 10:00;30,9
2015-07-14 10:15;33,85
2015-07-14 10:30;38,45
2015-07-14 10:45;44
2015-07-14 11:00;38,6
2015-07-14 11:15;43,8
2015-07-14 11:30;44,85
2015-07-14 11:45;49,2
2015-07-14 12:00;42,9
2015-07-14 12:15;37,8
2015-07-14 12:30;43,5
2015-07-14 12:45;48,1
2015-07-14 13:00;46,6
2015-07-14 13:15;49,4
2015-07-14 13:30;49,4
2015-07-14 13:45;49,8
2015-07-14 14:00;46,3
2015-07-14 14:15;48,5
2015-07-14 14:30;54,4
2015-07-14 14:45;44,55
2015-07-14 15:00;42,05
2015-07-14 15:15;53,2
2015-07-14 15:30;45,1
2015-07-14 15:45;28,65
2015-07-14 16:00;26,6
2015-07-14 16:15;16,2
2015-07-14 16:30;29,05
2015-07-14 16:45;25,85
2015-07-14 17:00;18,25
2015-07-14 17:15;21,3
2015-07-14 17:30;17,8
2015-07-14 17:45;12,55
2015-07-14 18:00;11,75
2015-07-14 18:15;9,2
2015-07-14 18:30;12,2
2015-07-14 18:45;2,7
2015-07-14 19:00;0,6
2015-07-14 19:15;4
2015-07-14 19:30;4,1
2015-07-14 19:45;0
2015-07-14 20:00;0
2015-07-14 20:15;0
2015-07-14 20:30;0,2
2015-07-14 20:45;0
2015-07-14 21:00;0
2015-07-14 21:15;0
2015-07-14 21:30;0
2015-07-14 21:45;0
2015-07-14 22:00;0
2015-07-14 22:15;0,35
2015-07-14 22:30;0
2015-07-14 22:45;0,25
2015-07-14 23:00;0
2015-07-14 23:15;0,85
2015-07-14 23:30;0,85
2015-07-14 23:45;2,2
2015-07-15 00:00;6,65
2015-07-15 00:15;0
2015-07-15 00:30;0,35
2015-07-15 00:45;0,15
2015-07-15 01:00;0
2015-07-15 01:15;3,85
2015-07-15 01:30;0,2
2015-07-15 01:45;0,2
2015-07-15 02:00;0,3
2015-07-15 02:15;0
2015-07-15 02:30;2,2
2015-07-15 02:45;2,65
2015-07-15 03:00;0,15
2015-07-15 03:15;0,6
2015-07-15 03:30;0,7
2015-07-15 03:45;0
2015-07-15 04:00;5,5
2015-07-15 04:15;1,4
2015-07-15 04:30;10,2
2015-07-15 04:45;9,6
2015-07-15 05:00;9,3
2015-07-15 05:15;12,9
2015-07-15 05:30;10,8
2015-07-15 05:45;10,1
2015-07-15 06:00;8,7
2015-07-15 06:15;11,25
2015-07-15 06:30;7,45
2015-07-15 06:45;8,3
2015-07-15 07:00;4,05
2015-07-15 07:15;3,5
2015-07-15 07:30;5,65
2015-07-15 07:45;30,25
2015-07-15 08:00;48,35
2015-07-15 08:15;35,2
2015-07-15 08:30;25,65
2015-07-15 08:45;24,95
2015-07-15 09:00;24,8
2015-07-15 09:15;29,9
2015-07-15 09:30;24,35
2015-07-15 09:45;25,15
2015-07-15 10:00;24
2015-07-15 10:15;26,35
2015-07-15 10:30;41,35
2015-07-15 10:45;37,7
2015-07-15 11:00;40,7
2015-07-15 11:15;48,4
2015-07-15 11:30;45,2
2015-07-15 11:45;43,1
2015-07-15 12:00;54
2015-07-15 12:15;49,3
2015-07-15 12:30;46,45
2015-07-15 12:45;54
2015-07-15 13:00;46,35
2015-07-15 13:15;42,6
2015-07-15 13:30;57,05
2015-07-15 13:45;56,35
2015-07-15 14:00;53,1
2015-07-15 14:15;48,25
2015-07-15 14:30;52,7
2015-07-15 14:45;52,5
2015-07-15 15:00;48,75
2015-07-15 15:15;50,1
2015-07-15 15:30;40,4
2015-07-15 15:45;27,15
2015-07-15 16:00;18,6
2015-07-15 16:15;17
2015-07-15 16:30;6,45
2015-07-15 16:45;11,6
2015-07-15 17:00;15,2
2015-07-15 17:15;17,95
2015-07-15 17:30;12,4
2015-07-15 17:45;10,05
2015-07-15 18:00;11,15
2015-07-15 18:15;10,35
2015-07-15 18:30;3,6
2015-07-15 18:45;1,45
2015-07-15 19:00;4,2
2015-07-15 19:15;1,95
2015-07-15 19:30;0,25
2015-07-15 19:45;0
2015-07-15 20:00;0,05
2015-07-15 20:15;0,55
2015-07-15 20:30;0
2015-07-15 20:45;0
2015-07-15 21:00;0
2015-07-15 21:15;0
2015-07-15 21:30;0
2015-07-15 21:45;0
2015-07-15 22:00;0
2015-07-15 22:15;0
2015-07-15 22:30;0,05
2015-07-15 22:45;0
2015-07-15 23:00;0
2015-07-15 23:15;0
2015-07-15 23:30;0
2015-07-15 23:45;0
2015-07-16 00:00;0
2015-07-16 00:15;0
2015-07-16 00:30;0
2015-07-16 00:45;0
2015-07-16 01:00;0
2015-07-16 01:15;0
2015-07-16 01:30;0
2015-07-16 01:45;0
2015-07-16 02:00;0
2015-07-16 02:15;0
2015-07-16 02:30;0
2015-07-16 02:45;0
2015-07-16 03:00;0
2015-07-16 03:15;0
2015-07-16 03:30;0
2015-07-16 03:45;0
2015-07-16 04:00;0
2015-07-16 04:15;0
2015-07-16 04:30;0
2015-07-16 04:45;0
2015-07-16 05:00;0,3
2015-07-16 05:15;0,35
2015-07-16 05:30;0
2015-07-16 05:45;0
2015-07-16 06:00;0,05
2015-07-16 06:15;0
2015-07-16 06:30;0
2015-07-16 06:45;0
2015-07-16 07:00;0
2015-07-16 07:15;0
2015-07-16 07:30;1,1
2015-07-16 07:45;24,7
2015-07-16 08:00;39,1
2015-07-16 08:15;33,4
2015-07-16 08:30;29,8
2015-07-16 08:45;25,4
2015-07-16 09:00;18,15
2015-07-16 09:15;27,85
2015-07-16 09:30;28,1
2015-07-16 09:45;23,9
2015-07-16 10:00;24,95
2015-07-16 10:15;25,25
2015-07-16 10:30;34,9
2015-07-16 10:45;31,9
2015-07-16 11:00;30,5
2015-07-16 11:15;41,5
2015-07-16 11:30;39,15
2015-07-16 11:45;41,25
2015-07-16 12:00;44,2
2015-07-16 12:15;44
2015-07-16 12:30;33,3
2015-07-16 12:45;40,3
2015-07-16 13:00;38,7
2015-07-16 13:15;40,6
2015-07-16 13:30;39,3
2015-07-16 13:45;33
2015-07-16 14:00;39,4
2015-07-16 14:15;38,05
2015-07-16 14:30;35,3
2015-07-16 14:45;43,75
2015-07-16 15:00;40,15
2015-07-16 15:15;37,8
2015-07-16 15:30;32,65
2015-07-16 15:45;29,3
2015-07-16 16:00;24,6
2015-07-16 16:15;18,2
2015-07-16 16:30;11,8
2015-07-16 16:45;17,7
2015-07-16 17:00;9,9
2015-07-16 17:15;11,4
2015-07-16 17:30;14,65
2015-07-16 17:45;16,1
2015-07-16 18:00;13,6
2015-07-16 18:15;10,55
2015-07-16 18:30;8,9
2015-07-16 18:45;7,9
2015-07-16 19:00;0,65
2015-07-16 19:15;1,75
2015-07-16 19:30;0
2015-07-16 19:45;0
2015-07-16 20:00;0
2015-07-16 20:15;0
2015-07-16 20:30;0
2015-07-16 20:45;0
2015-07-16 21:00;0
2015-07-16 21:15;0
2015-07-16 21:30;0
2015-07-16 21:45;0
2015-07-16 22:00;0
2015-07-16 22:15;0
2015-07-16 22:30;0,05
2015-07-16 22:45;0
2015-07-16 23:00;0
2015-07-16 23:15;0,5
2015-07-16 23:30;6,65
2015-07-16 23:45;3,3
2015-07-17 00:00;1,65
2015-07-17 00:15;0
2015-07-17 00:30;0
2015-07-17 00:45;0,65
2015-07-17 01:00;0
2015-07-17 01:15;0
2015-07-17 01:30;0
2015-07-17 01:45;0
2015-07-17 02:00;0,45
2015-07-17 02:15;0,15
2015-07-17 02:30;0
2015-07-17 02:45;0
2015-07-17 03:00;2,1
2015-07-17 03:15;1,85
2015-07-17 03:30;0
2015-07-17 03:45;0,6
2015-07-17 04:00;0
2015-07-17 04:15;0,85
2015-07-17 04:30;1,7
2015-07-17 04:45;0,3
2015-07-17 05:00;3,05
2015-07-17 05:15;2,6
2015-07-17 05:30;11,5
2015-07-17 05:45;16,3
2015-07-17 06:00;9,7
2015-07-17 06:15;7,7
2015-07-17 06:30;5,65
2015-07-17 06:45;1,4
2015-07-17 07:00;5,85
2015-07-17 07:15;0,55
2015-07-17 07:30;6,65
2015-07-17 07:45;9,2
2015-07-17 08:00;24,25
2015-07-17 08:15;24,3
2015-07-17 08:30;10,45
2015-07-17 08:45;15,25
2015-07-17 09:00;6
2015-07-17 09:15;11,9
2015-07-17 09:30;21,5
2015-07-17 09:45;16,1
2015-07-17 10:00;31
2015-07-17 10:15;32,4
2015-07-17 10:30;34,1
2015-07-17 10:45;29,95
2015-07-17 11:00;33,2
2015-07-17 11:15;28,25
2015-07-17 11:30;32,15
2015-07-17 11:45;30,85
2015-07-17 12:00;24,25
2015-07-17 12:15;33,5
2015-07-17 12:30;37,95
2015-07-17 12:45;28,5
2015-07-17 13:00;28,5
2015-07-17 13:15;38,4
2015-07-17 13:30;27,45
2015-07-17 13:45;38,25
2015-07-17 14:00;51,75
2015-07-17 14:15;47
2015-07-17 14:30;44,2
2015-07-17 14:45;36,9
2015-07-17 15:00;44,25
2015-07-17 15:15;34,55
2015-07-17 15:30;25,15
2015-07-17 15:45;19,95
2015-07-17 16:00;25,05
2015-07-17 16:15;22,8
2015-07-17 16:30;22,3
2015-07-17 16:45;17,25
2015-07-17 17:00;17,3
2015-07-17 17:15;14,65
2015-07-17 17:30;10,65
2015-07-17 17:45;9,2
2015-07-17 18:00;10,85
2015-07-17 18:15;7,9
2015-07-17 18:30;3,4
2015-07-17 18:45;1,75
2015-07-17 19:00;0
2015-07-17 19:15;4
2015-07-17 19:30;0,35
2015-07-17 19:45;0,25
2015-07-17 20:00;0
2015-07-17 20:15;0,15
2015-07-17 20:30;0,5
2015-07-17 20:45;0
2015-07-17 21:00;0
2015-07-17 21:15;0
2015-07-17 21:30;0
2015-07-17 21:45;0,55
2015-07-17 22:00;0,4
2015-07-17 22:15;0
2015-07-17 22:30;0,7
2015-07-17 22:45;0,3
2015-07-17 23:00;0,05
2015-07-17 23:15;0
2015-07-17 23:30;0
2015-07-17 23:45;0,15
2015-07-18 00:00;3,05
2015-07-18 00:15;1,1
2015-07-18 00:30;0,15
2015-07-18 00:45;0
2015-07-18 01:00;0
2015-07-18 01:15;0
2015-07-18 01:30;0
2015-07-18 01:45;0
2015-07-18 02:00;0
2015-07-18 02:15;0
2015-07-18 02:30;0,05
2015-07-18 02:45;0
2015-07-18 03:00;0
2015-07-18 03:15;0
2015-07-18 03:30;0
2015-07-18 03:45;0
2015-07-18 04:00;0,2
2015-07-18 04:15;0
2015-07-18 04:30;0
2015-07-18 04:45;0
2015-07-18 05:00;0
2015-07-18 05:15;0
2015-07-18 05:30;0
2015-07-18 05:45;0
2015-07-18 06:00;0
2015-07-18 06:15;0,05
2015-07-18 06:30;0
2015-07-18 06:45;0
2015-07-18 07:00;0
2015-07-18 07:15;0
2015-07-18 07:30;0
2015-07-18 07:45;6,75
2015-07-18 08:00;5,25
2015-07-18 08:15;3,95
2015-07-18 08:30;2,2
2015-07-18 08:45;3,45
2015-07-18 09:00;2,35
2015-07-18 09:15;1,3
2015-07-18 09:30;0,45
2015-07-18 09:45;2,5
2015-07-18 10:00;6,65
2015-07-18 10:15;7,5
2015-07-18 10:30;2,65
2015-07-18 10:45;2,05
2015-07-18 11:00;1,5
2015-07-18 11:15;2,6
2015-07-18 11:30;3,8
2015-07-18 11:45;0,9
2015-07-18 12:00;0,05
2015-07-18 12:15;0,35
2015-07-18 12:30;6,5
2015-07-18 12:45;5
2015-07-18 13:00;1,35
2015-07-18 13:15;0,8
2015-07-18 13:30;2,15
2015-07-18 13:45;4,1
2015-07-18 14:00;1,3
2015-07-18 14:15;2,9
2015-07-18 14:30;4,1
2015-07-18 14:45;13,2
2015-07-18 15:00;9,1
2015-07-18 15:15;7,4
2015-07-18 15:30;8,1
2015-07-18 15:45;11,1
2015-07-18 16:00;14,3
2015-07-18 16:15;12,15
2015-07-18 16:30;12,15
2015-07-18 16:45;12,85
2015-07-18 17:00;13,45
2015-07-18 17:15;12,3
2015-07-18 17:30;13,5
2015-07-18 17:45;14
2015-07-18 18:00;16,4
2015-07-18 18:15;17,05
2015-07-18 18:30;9,35
2015-07-18 18:45;5,15
2015-07-18 19:00;1,35
2015-07-18 19:15;4,1
2015-07-18 19:30;4,6
2015-07-18 19:45;0,1
2015-07-18 20:00;0,6
2015-07-18 20:15;2,5
2015-07-18 20:30;5,9
2015-07-18 20:45;1,75
2015-07-18 21:00;0
2015-07-18 21:15;0
2015-07-18 21:30;0,05
2015-07-18 21:45;0
2015-07-18 22:00;0
2015-07-18 22:15;0
2015-07-18 22:30;0
2015-07-18 22:45;0
2015-07-18 23:00;0,4
2015-07-18 23:15;0,2
2015-07-18 23:30;0
2015-07-18 23:45;0,3
2015-07-19 00:00;2,05
2015-07-19 00:15;0,45
2015-07-19 00:30;1,8
2015-07-19 00:45;0
2015-07-19 01:00;0,1
2015-07-19 01:15;0,05
2015-07-19 01:30;0
2015-07-19 01:45;0,45
2015-07-19 02:00;0,25
2015-07-19 02:15;0
2015-07-19 02:30;0
2015-07-19 02:45;0,1
2015-07-19 03:00;0,7
2015-07-19 03:15;0
2015-07-19 03:30;0,15
2015-07-19 03:45;0
2015-07-19 04:00;0
2015-07-19 04:15;3,05
2015-07-19 04:30;1,7
2015-07-19 04:45;1
2015-07-19 05:00;0,95
2015-07-19 05:15;0,05
2015-07-19 05:30;2,3
2015-07-19 05:45;0,45
2015-07-19 06:00;0
2015-07-19 06:15;0,1
2015-07-19 06:30;0,2
2015-07-19 06:45;1
2015-07-19 07:00;0,5
2015-07-19 07:15;0
2015-07-19 07:30;0
2015-07-19 07:45;0
2015-07-19 08:00;0,05
2015-07-19 08:15;0
2015-07-19 08:30;0
2015-07-19 08:45;0,4
2015-07-19 09:00;0,6
2015-07-19 09:15;1
2015-07-19 09:30;5,85
2015-07-19 09:45;0
2015-07-19 10:00;0
2015-07-19 10:15;0,1
2015-07-19 10:30;1,1
2015-07-19 10:45;1,4
2015-07-19 11:00;0,2
2015-07-19 11:15;0
2015-07-19 11:30;0
2015-07-19 11:45;0,8
2015-07-19 12:00;0
2015-07-19 12:15;0
2015-07-19 12:30;0,25
2015-07-19 12:45;0
2015-07-19 13:00;0,05
2015-07-19 13:15;0
2015-07-19 13:30;0
2015-07-19 13:45;0,15
2015-07-19 14:00;0,55
2015-07-19 14:15;0
2015-07-19 14:30;0
2015-07-19 14:45;0,1
2015-07-19 15:00;0,6
2015-07-19 15:15;0
2015-07-19 15:30;0
2015-07-19 15:45;0
2015-07-19 16:00;1,5
2015-07-19 16:15;0
2015-07-19 16:30;0
2015-07-19 16:45;0,3
2015-07-19 17:00;3,05
2015-07-19 17:15;1
2015-07-19 17:30;0,25
2015-07-19 17:45;0
2015-07-19 18:00;0,35
2015-07-19 18:15;0,3
2015-07-19 18:30;0
2015-07-19 18:45;0
2015-07-19 19:00;0
2015-07-19 19:15;0
2015-07-19 19:30;0
2015-07-19 19:45;0,1
2015-07-19 20:00;0,05
2015-07-19 20:15;0,4
2015-07-19 20:30;1,2
2015-07-19 20:45;0
2015-07-19 21:00;0,1
2015-07-19 21:15;0,2
2015-07-19 21:30;0,2
2015-07-19 21:45;0
2015-07-19 22:00;0
2015-07-19 22:15;0
2015-07-19 22:30;0
2015-07-19 22:45;0,05
2015-07-19 23:00;0,9
2015-07-19 23:15;0
2015-07-19 23:30;0,35
2015-07-19 23:45;0,85

